Overview Statistics Trail Chart Weather Telemetry Raw packets
 

This is the latest recevied weather packets stored in our database for station/object K1TTC. If no packets are shown the sender has not sent any weather packets the latest 10 day(s).

<< 17 18 19 20 21 22 23 >>
Time Temp. Humidity Pressure Rain* Wind** Luminosity Snow
1788358562 19.44° C 89% 1023.8 hPa 0 mm - 378 W/m² -
1788357963 18.89° C 89% 1023.6 hPa 0 mm - 292 W/m² -
1788357361 18.89° C 89% 1023.5 hPa 0 mm - 306 W/m² -
1788356807 18.33° C 90% 1023.5 hPa 0 mm - 285 W/m² -
1788356208 18.33° C 90% 1023.4 hPa 0 mm - 206 W/m² -
1788355556 18.33° C 90% 1023.4 hPa 0 mm - 257 W/m² -
1788354956 18.33° C 90% 1023.7 hPa 0 mm - 197 W/m² -
1788354356 18.33° C 90% 1023.7 hPa 0 mm - 176 W/m² -
1788353757 18.33° C 90% 1023.7 hPa 0 mm - 234 W/m² -
1788353158 17.78° C 90% 1023.7 hPa 0 mm - 139 W/m² -
1788352556 17.78° C 90% 1023.7 hPa 0 mm - 165 W/m² -
1788352012 17.78° C 89% 1023.9 hPa 0 mm - 118 W/m² -
1788351357 17.22° C 88% 1023.8 hPa 0 mm - 76 W/m² -
1788350758 17.22° C 88% 1023.9 hPa 0 mm - 72 W/m² -
1788350209 17.22° C 88% 1024.1 hPa 0 mm - 62 W/m² -
1788349554 17.22° C 88% 1024 hPa 0 mm - 42 W/m² -
1788348950 17.22° C 88% 1024.1 hPa 0 mm - 26 W/m² -
1788348347 17.22° C 88% 1023.8 hPa 0 mm - 18 W/m² -
1788347749 16.67° C 88% 1023.7 hPa 0 mm - 0 W/m² -
1788347143 16.67° C 88% 1023.6 hPa 0 mm - 7 W/m² -
1788346539 16.67° C 87% 1023.6 hPa 0 mm - 14 W/m² -
1788345938 16.67° C 87% 1023.4 hPa 0 mm - 19 W/m² -
1788345332 16.67° C 87% 1023.2 hPa 0 mm - 19 W/m² -
1788344730 16.67° C 87% 1023.1 hPa 0 mm - 16 W/m² -
1788344170 16.67° C 87% 1023 hPa 0 mm - 11 W/m² -

* Rain latest hour (hover to see other rain measurements)
** Current wind speed in m/s (hover to see current wind gust speed)